Simultaneous Nadir Overpasses (SNOs) Predictions

Prediction of SNOs between GOES-15 and METOP-B Satellite Orbit:

Table of predicted SNOs for the next 14.0 days since TLE Epoch: 9/7/2024
Index Date Time (GOES-15) GOES-15 Lat,Lon METOP-B Lat,Lon Distance(km) Time Diff (sec)
1 09/07/2024 05:07:14 -0.21, 61.37 -0.62, 63.22 210.82 80
2 09/08/2024 17:23:34 0.24, 61.48 -0.37, 58.61 327.15 80
3 09/09/2024 17:05:33 0.22, 61.48 0.70, 63.60 242.54 80
4 09/11/2024 05:21:45 -0.24, 61.35 0.29, 59.03 264.89 80
5 09/12/2024 05:03:44 -0.22, 61.34 -0.80, 64.02 304.47 80
6 09/13/2024 17:20:04 0.25, 61.47 -0.22, 59.41 234.46 80
7 09/14/2024 17:02:03 0.23, 61.47 0.88, 64.41 334.48 80
8 09/16/2024 05:18:14 -0.26, 61.35 0.07, 59.82 173.70 80
9 09/17/2024 05:00:14 -0.24, 61.35 -1.04, 64.82 395.36 80
10 09/18/2024 17:16:32 0.27, 61.48 0.00, 60.22 143.53 80
11 09/19/2024 16:58:31 0.25, 61.48 1.07, 65.22 425.25 80
